Hourly Data Report for November 18, 2003

SHERBROOKE A
QUEBEC

45°26'00.000" N
71°41'00.000" W
241.40 m
7028124
71610
YSC

Download Data

Hourly Data (November 2003)
Hourly Data Report for November 18, 2003
TIME
LST
Temp Definition
°C
Dew Point Definition
°C
Rel Hum Definition
%
Precip. Amount Definition
mm

Wind Dir Definition
10's deg

Wind Spd Definition
km/h
Visibility Definition
km
Stn Press Definition
kPa
Hmdx Definition


Wind Chill Definition


Weather Definition


00:00 -9.4 -11.0 88     0 15.0 99.93      
01:00 -9.8 -11.5 87   9 7 15.0 99.92   -14  
02:00 -9.2 -11.0 87   8 6 15.0 99.94   -13  
03:00 -9.5 -11.2 87   6 7 15.0 99.94   -13  
04:00 -9.6 -11.4 87   8 7 15.0 99.92   -14  
05:00 -9.6 -11.3 87   7 7 15.0 99.93   -14  
06:00 -9.7 -11.7 85   7 7 15.0 99.93   -14  
07:00 -9.8 -12.0 84   7 7 15.0 99.87   -14  
08:00 -8.3 -10.2 86     0 24.1 99.95     Mainly Clear
09:00 -5.9 -8.2 84   7 4 24.1 100.03   -8 Mainly Clear
10:00 -3.3 -6.6 78   9 7 24.1 99.97   -6 Mainly Clear
11:00 -0.2 -4.9 71   33 4 24.1 99.86   -1 Mainly Clear
12:00 2.8 -2.9 66   9 4 24.1 99.74     Mainly Clear
13:00 5.3 -1.3 62   3 6 24.1 99.66     Clear
14:00 6.3 -0.3 63   3 4 24.1 99.61     Clear
15:00 8.1 0.8 60     0 24.1 99.53     Mainly Clear
16:00 4.8 0.5 74   20 6 24.1 99.51     Mainly Clear
17:00 3.0 0.2 82   14 7 24.1 99.47     Mainly Clear
18:00 3.1 0.4 82   12 9 15.0 99.42      
19:00 2.7 -0.4 80   10 9 15.0 99.32      
20:00 2.0 -2.0 75   14 9 15.0 99.22      
21:00 2.8 -0.5 79   13 13 15.0 99.19      
22:00 2.8 -0.2 81   11 13 15.0 99.17      
23:00 4.7 0.8 76   14 19 15.0 99.10      

Notes on Data Quality.

Legend

  • E = Estimated
  • M = Missing
  • NA = Not Available*
  • [empty] = Indicates an unobserved value
Date modified: